Location: Newark
(52.3500°N, 175.9667°E)
Time: 21:50:57
(UTC+00:00)

Transit 4A - Pass Details

Date: 24 April 2021
Orbit: 871 x 974 km, 66.8° (Epoch: 16 May)

Event Time Altitude Azimuth Distance (km) Brightness Sun altitude
Rises 15:25:16 0° 300° (WNW) 3,570 10.8 -12.8°
Reaches altitude 10° 15:28:32 10° 317° (NW) 2,608 10.2 -12.4°
Maximum altitude 15:32:56 20° 4° (N) 1,942 10.2 -11.9°
Drops below altitude 10° 15:37:16 10° 51° (NE) 2,559 11.8 -11.4°
Sets 15:40:26 0° 68° (ENE) 3,485 12.5 -11.0°
